Location: Cortina d'Ampezzo
(46.5405°N, 12.1357°E)
Time: 09:29:28
(UTC+01:00)

ISS - Visible Passes

Search period start: 20 January 2026 00:00
Search period end: 30 January 2026 00:00
Orbit: 413 x 424 km, 51.6° (Epoch: 19 January)

Date Brightness Start Highest point End Pass type
(mag) Time Alt. Az. Time Alt. Az. Time Alt. Az.
20 Jan -2.9 17:52:46 10° W 17:55:55 37° N 17:58:23 15° NE visible
20 Jan -1.3 19:30:04 10° WNW 19:31:19 19° NW 19:31:19 19° NW visible
21 Jan -2.8 18:42:07 10° WNW 18:45:12 33° N 18:45:24 33° NNE visible
22 Jan -2.7 17:54:06 10° WNW 17:57:09 32° N 17:59:30 15° ENE visible
22 Jan -1.5 19:31:04 10° WNW 19:32:26 22° NW 19:32:26 22° NW visible
23 Jan -3.2 18:43:09 10° WNW 18:46:21 42° NNE 18:46:33 41° NNE visible
24 Jan -2.9 17:55:09 10° WNW 17:58:16 36° N 18:00:42 15° ENE visible
24 Jan -1.7 19:31:56 10° WNW 19:33:38 28° WNW 19:33:38 28° WNW visible
25 Jan -3.9 18:43:57 10° WNW 18:47:17 70° NNE 18:47:50 55° E visible
26 Jan -3.5 17:55:56 10° WNW 17:59:13 51° NNE 18:02:07 12° E visible
26 Jan -1.8 19:32:50 10° WNW 19:35:05 29° WSW 19:35:05 29° WSW visible
27 Jan -3.2 18:44:40 10° WNW 18:47:57 54° SSW 18:49:30 27° SE visible
28 Jan -3.7 17:56:34 10° WNW 17:59:54 83° SSW 18:03:15 10° ESE visible
28 Jan -1.0 19:34:18 10° W 19:36:14 15° SW 19:37:04 14° SSW visible
29 Jan -1.4 18:45:37 10° W 18:48:19 23° SW 18:51:00 10° SSE visible
